Location: Buchberg
(48.5667°N, 15.6500°E)
Time: 17:43:35
(UTC+00:00)

Daily predictions for brighter satellites

Satellite Brightness Start Highest point End
(mag) Time Altitude Azimuth Time Altitude Azimuth Time Altitude Azimuth
CORIOLIS 4.1 16:08:02 10° SSE 16:13:21 70° ENE 16:18:42 10° N
USA 305 3.4 16:10:40 10° WNW 16:14:52 48° NNE 16:19:02 10° E
H-2A R/B 4.4 16:14:24 10° SSW 16:17:52 38° W 16:21:22 10° NNW
Meteor 1-11 4.3 16:12:14 10° N 16:17:59 84° ENE 16:23:46 10° SSE
Aureole 3 4.1 16:17:00 10° SE 16:19:17 19° E 16:21:30 10° NE
FALCON 9 DEB 3.5 16:16:55 10° SW 16:20:01 46° SSE 16:23:07 10° ENE
H-2A R/B 4.0 16:16:02 10° S 16:20:20 47° W 16:24:43 10° NNW
Cosmos 1689 Rocket 3.8 16:19:19 10° NE 16:21:04 15° E 16:22:47 10° SE
USA 306 3.3 16:17:10 10° WNW 16:21:21 49° NNE 16:25:31 10° E
Cosmos 1953 Rocket 3.7 16:17:03 10° N 16:21:25 55° ENE 16:25:47 10° SSE
CZ-4B R/B 1.7 16:19:49 10° NNE 16:22:54 41° E 16:25:53 10° S
FengYun 1-2 T 4.3 16:19:11 10° SSE 16:24:47 68° ENE 16:30:23 10° N
CZ-4C R/B 4.0 16:20:42 10° NW 16:25:41 23° N 16:31:21 10° ENE
Cosmos 2058 Rocket 3.7 16:23:46 10° SSE 16:27:50 35° E 16:31:57 10° NNE
CZ-2C R/B 4.1 16:23:54 10° ESE 16:28:43 28° ENE 16:33:23 10° N
Meteor 2-10 Rocket 4.4 16:34:50 10° SE 16:39:07 26° E 16:43:17 10° NE
Cosmos 1943 Rocket 4.5 16:36:04 10° WNW 16:39:15 15° NW 16:42:27 10° N
Cosmos 1455 3.7 16:37:32 10° ESE 16:39:50 16° E 16:42:11 10° NE
YAOGAN 6 4.3 16:36:37 10° SSW 16:40:04 39° W 16:43:34 10° NNW
Cosmos 2219 3.2 16:36:05 10° NNW 16:41:53 76° ENE 16:47:38 10° SSE
BREEZE-M R/B 3.3 16:44:43 10° W 16:48:13 78° N 16:53:44 15° E
H-2A R/B 3.5 16:45:16 10° N 16:49:08 38° WNW 16:52:56 10° SW
COSMO-SKYMED 1 2.8 16:44:58 10° NNE 16:49:11 45° E 16:53:21 10° S
Cosmos 2082 4.1 16:44:18 10° NNW 16:49:47 43° NE 16:55:13 10° SE
ATLAS 5 CENTAUR R/B 3.8 16:46:51 10° WNW 16:49:58 18° NNW 16:53:23 10° NNE
Feng Yun 1-1 Rocket 4.4 16:44:42 10° SSE 16:50:37 83° ENE 16:56:36 10° NNW
Cosmos 44 3.2 16:47:11 10° SW 16:51:43 84° NW 16:56:35 10° NE
H-2A R/B 2.9 16:50:53 10° SE 16:55:38 32° ENE 17:00:25 10° N
NOSS 3-4 (A) 4.4 16:50:01 10° NW 16:56:11 37° NNE 17:01:08 17° E
NOSS 3-4 (C) 4.4 16:50:06 10° NW 16:56:17 37° NNE 17:01:12 17° E
S3M 4.4 16:51:01 10° SSE 16:56:35 39° E 17:02:14 10° NNE
ARGOS 4.1 16:54:30 12° ESE 16:58:25 27° ENE 17:02:52 10° N
Cosmos 1656 3.7 16:56:25 10° S 17:01:52 58° ESE 17:07:25 10° NE
Cosmos 1939 Rocket 2.7 16:59:17 10° SSE 17:03:14 86° E 17:07:11 10° NNW
YAOGAN 1 2.8 17:00:00 10° SE 17:04:06 44° ENE 17:08:14 10° N
Meteor 2-8 Rocket 4.4 16:58:03 10° S 17:04:06 72° E 17:10:15 10° NNE
GEOS 3 Rocket 4.1 17:00:24 17° ESE 17:04:12 44° NE 17:09:19 10° NNW
USA 307 2.9 17:00:31 10° WNW 17:04:49 71° NNE 17:07:25 23° ESE
Cosmos 2369 4.4 17:00:44 10° SSE 17:05:38 31° ESE 17:09:18 16° NE
SeaSat 1 3.4 17:03:40 20° E 17:05:47 28° NE 17:09:56 10° N
Okean O Rocket 3.6 17:02:54 10° SSW 17:06:47 31° W 17:10:42 10° NNW
NOSS 3-3 (A) 4.4 17:01:57 10° S 17:07:16 38° ESE 17:11:34 17° ENE
NOSS 3-3 (C) 4.4 17:02:05 10° S 17:07:23 38° ESE 17:11:38 17° ENE
Cosmos 1408 2.8 17:06:00 10° N 17:09:31 44° ENE 17:13:02 10° SSE
USA 308 2.9 17:05:26 10° WNW 17:09:44 74° NNE 17:12:08 25° ESE
Cosmos 1812 Rocket 4.3 17:06:45 10° SSE 17:10:31 29° E 17:14:17 10° NNE
USA 215 3.8 17:07:14 18° ENE 17:11:44 45° N 17:17:53 10° WNW
SKYMED 3 4.5 17:08:54 10° NNE 17:13:17 80° ESE 17:17:37 10° S
Cosmos 1726 Rocket 4.4 17:09:40 10° SSW 17:13:55 52° WNW 17:18:14 10° N
Cosmos 2227 Rocket 2.3 17:08:42 10° NNW 17:14:24 82° WSW 17:20:02 10° SSE
Cosmos 1892 2.6 17:11:32 10° N 17:15:26 81° ENE 17:19:19 10° SSE
Helios 1A Rocket 2.8 17:11:21 10° SSE 17:15:28 81° ENE 17:19:35 10° NNW
CZ-4 R/B 4.4 17:11:42 10° SSE 17:15:52 89° W 17:20:03 10° NNW
CSL-04 Rocket 3.9 17:12:32 10° SE 17:17:49 47° ENE 17:23:05 10° N
Cosmos 2263 Rocket 3.3 17:13:25 10° N 17:18:07 25° NE 17:19:27 23° ENE
ATLAS 2AS CENTAUR R/B 3.5 17:11:09 10° NW 17:18:17 40° NNE 17:22:01 24° E
Aureole 3 Rocket 3.4 17:14:16 10° SSW 17:18:23 81° W 17:24:12 10° N
MOS 1 Rocket 3.9 17:14:29 10° NNE 17:18:48 34° E 17:23:19 10° SSE
Cosmos 1400 Rocket 3.1 17:14:44 10° SSW 17:18:50 71° WNW 17:22:55 10° N
IRS-1C Rocket 4.4 17:16:47 10° S 17:22:01 69° WSW 17:27:18 10° NNW
Cosmos 968 Rocket 3.5 17:18:36 10° NNW 17:23:51 81° WSW 17:29:01 10° SSE
Cosmos 1553 Rocket 4.0 17:19:05 10° S 17:25:26 85° E 17:31:44 10° N
Meteor 2-15 Rocket 4.5 17:19:48 10° S 17:25:47 56° E 17:31:47 10° NNE
FALCON 9 DEB 3.2 17:25:45 10° WSW 17:28:57 62° NNW 17:29:34 49° NNE
CZ-4 R/B 1.2 17:25:25 10° SSE 17:29:18 89° WSW 17:33:11 10° NNW
Cosmos 2151 4.2 17:25:57 10° N 17:28:26 25° NE 17:28:26 25° NE
Lacrosse 5 3.0 17:25:45 10° WNW 17:30:18 32° N 17:32:14 25° NE
Cosmos 1697 Rocket 2.7 17:25:17 10° S 17:30:44 54° ESE 17:34:45 18° NE
FALCON 9 DEB 3.2 17:28:54 10° W 17:32:04 58° NNW 17:32:31 51° NNE
Cosmos 2058 2.8 17:28:22 10° N 17:32:29 88° E 17:36:35 10° S
PSLV R/B 4.0 17:29:15 10° NNE 17:33:27 78° WNW 17:37:34 10° SSW
Cosmos 1825 2.1 17:30:09 10° N 17:33:53 55° ENE 17:34:22 51° ESE
Meteor 2-1 Rocket 4.1 17:29:27 10° S 17:34:53 66° E 17:40:24 10° NNE
SKYMED 2 4.1 17:33:00 10° N 17:37:18 60° WNW 17:41:34 10° SSW
CZ-2D R/B 4.0 17:33:43 10° S 17:37:27 52° W 17:41:11 10° NNW
ERBS 4.1 17:34:52 10° NW 17:37:25 21° N 17:37:25 21° N
Meteor 2-15 4.4 17:31:34 10° S 17:37:42 84° E 17:43:52 10° N
Timation 1 Rocket 4.3 17:32:27 10° NNW 17:38:28 65° ENE 17:41:44 28° SE
Cosmos 44 Rocket 3.9 17:34:27 10° S 17:38:24 35° SE 17:38:24 35° SE
FALCON 9 DEB 3.3 17:37:35 10° WNW 17:40:54 58° NNE 17:40:54 58° NNE
Okean-O 3.0 17:37:34 10° S 17:41:57 63° WSW 17:46:23 10° NNW
Cosmos 1346 Rocket 3.1 17:38:16 10° NNW 17:42:15 68° W 17:46:12 10° S
SL-4 R/B 1.6 17:38:57 10° WNW 17:42:33 71° NNE 17:42:47 68° NE
Cosmos 220 Rocket 3.9 17:38:16 10° SSW 17:42:38 81° ESE 17:45:06 26° NNE
FALCON 9 DEB 3.5 17:42:17 10° W 17:45:25 52° NNW 17:45:25 52° NNW
Cosmos 1745 Rocket 4.2 17:43:59 10° NNW 17:50:17 76° W 17:56:36 10° S
Cosmos 1315 Rocket 2.7 17:47:18 10° S 17:51:16 87° WNW 17:54:01 20° N
Cosmos 1689 Rocket 4.2 17:49:46 10° N 17:52:18 27° WNW 17:54:47 10° SW
SL-08 RB Rocket 4.4 17:54:21 36° NNE 17:54:21 36° NNE 17:57:28 10° N
Cosmos 2297 Rocket 3.8 17:48:43 10° NW 17:53:49 35° WSW 17:58:54 10° S
Cosmos 1980 Rocket 2.5 17:48:35 10° S 17:53:25 43° ESE 17:53:25 43° ESE
CZ-4B R/B 4.5 17:53:07 10° NNW 17:54:48 14° WNW 17:56:29 10° W
USA 305 3.2 17:50:47 10° WNW 17:55:03 63° SW 17:55:45 53° SSE
FALCON 9 DEB 4.1 17:52:58 10° W 17:55:34 41° NW 17:55:34 41° NW
Cosmos 1503 Rocket 4.2 17:53:43 10° NNW 17:58:56 69° WSW 18:03:10 16° S
CSL-04 Debris 4.2 17:54:04 10° SSE 17:59:30 81° WSW 18:05:01 10° NNW
USA 306 3.2 17:57:16 10° WNW 18:01:29 57° SW 18:01:56 54° S
DMSP B5D1-3 4.4 17:59:09 10° NNE 18:04:20 89° ESE 18:09:30 10° SSW
CZ-2C R/B 3.9 18:02:36 10° S 18:08:17 56° W 18:13:48 10° NNW
Cosmos 2227 4.4 18:03:54 10° NNW 18:09:08 51° NE 18:09:08 51° NE
Cosmos 1354 Rocket 4.4 18:05:54 10° NNW 18:11:06 62° WSW 18:14:14 24° S
Cosmos 2360 4.1 18:07:52 10° SSW 18:13:36 86° ESE 18:15:32 44° NNE
Cosmos 1455 3.3 18:11:27 10° SSW 18:15:05 44° WNW 18:17:16 21° NNW
CZ-4C R/B 3.3 18:09:32 10° NW 18:16:00 43° NE 18:17:00 41° NE
Cosmos 1992 Rocket 4.5 18:13:44 10° SW 18:18:52 59° WNW 18:22:44 18° NNE
Cosmos 1709 Rocket 4.1 18:13:33 10° NNW 18:19:57 78° W 18:26:19 10° S
Meteor 2-10 Rocket 4.5 18:15:52 10° SW 18:20:55 46° WNW 18:25:51 10° N
SJ 16-02 3.8 18:18:31 10° N 18:18:55 12° N 18:18:55 12° N
Cosmos 2278 3.6 18:19:40 10° SSW 18:24:51 72° SSE 18:24:51 72° SSE
Meteor 2-3 Rocket 3.9 18:22:15 10° N 18:27:07 60° NNE 18:27:07 60° NNE
Meteor 2-17 Rocket 4.5 18:22:27 10° N 18:27:44 61° NE 18:27:44 61° NE
Ariane Rocket 3.8 18:30:46 41° N 18:30:46 41° N 18:34:09 10° N
Geosat 4.1 18:29:48 68° NNW 18:30:15 73° WNW 18:35:15 10° SW
H-2A R/B 3.1 18:29:42 10° S 18:34:53 45° W 18:40:08 10° NNW
ATLAS 5 CENTAUR R/B 4.0 18:33:22 10° NNW 18:36:16 17° N 18:36:16 17° N
ARGOS 3.7 18:36:01 32° SSW 18:38:20 55° W 18:43:42 10° NNW
GEOS 3 Rocket 4.3 18:41:31 47° SSW 18:42:11 50° SW 18:47:25 10° NW
SeaSat 1 3.0 18:43:27 57° W 18:43:27 57° W 18:47:54 10° NW
Cosmos 2315 Rocket 4.1 18:37:12 10° SSW 18:43:23 70° WNW 18:49:36 10° N
NOSS 3-4 (A) 3.8 18:40:49 10° NW 18:47:46 81° SW 18:48:36 71° S
NOSS 3-4 (C) 3.8 18:40:55 10° NW 18:47:53 82° SW 18:48:40 72° S
Cosmos 2369 4.4 18:44:02 10° SW 18:49:35 51° NW 18:51:18 38° N
Cosmos 1844 Rocket 4.5 18:46:08 10° NNW 18:48:29 21° N 18:48:29 21° N
DEBRIS 4.1 18:37:52 10° WSW 18:51:52 83° SW 18:51:52 83° SW
USA 215 3.2 18:54:35 72° N 18:54:35 72° N 19:00:50 10° NW
Cosmos 2263 Rocket 2.9 18:56:56 10° NNW 19:01:09 50° NW 19:01:09 50° NW
ATLAS 2AS CENTAUR R/B 2.9 19:02:24 10° NW 19:09:28 73° W 19:09:28 73° W
Lacrosse 5 3.7 19:09:01 10° NW 19:11:26 27° NW 19:11:26 27° NW
Cosmos 1697 Rocket 4.3 19:10:01 10° WSW 19:14:58 31° NW 19:16:32 27° NNW
Cosmos 1980 Rocket 4.1 19:32:50 10° WSW 19:35:17 23° W 19:35:17 23° W
CZ-4C R/B 3.9 19:57:57 10° NW 20:02:11 40° NW 20:02:11 40° NW
